Southern Mariner — CFG2618 — position and weather

sailwx.info

Track history (hours):
 
Tides and Currents Weather Stations Pressure Air Temp Water Temp Dewpoint Dewpoint Depression Visibility Wind Speed Wind Dir Waves Ship Positions

Southern Mariner

Last reported at 2014-Jul-21 00:28 UTC. Time now 2014-Jul-22 15:26 UTC.
Position N 47°39' W 052°21'.

Length 20 m.

Type: Fishing. MMSI: 316004790.

Date/timePositionNaut miles runAvg speedWind from/ knotsBaromVisibWave heightAir tempDewpointWater temp
2014-Jul-21 00:28N 47°39' W 052°21'7 7.1
2014-Jul-20 23:29N 47°37' W 052°30'8 6.8
2014-Jul-20 22:16N 47°34' W 052°42'0 0.0
2014-Jul-20 21:28N 47°34' W 052°42'0 0.0
2014-Jul-20 20:28N 47°34' W 052°42'0 0.0
2014-Jul-20 19:28N 47°34' W 052°42'0 0.0
2014-Jul-20 18:28N 47°34' W 052°42'0 0.0
2014-Jul-20 17:28N 47°34' W 052°42'0 0.0
2014-Jul-20 16:28N 47°34' W 052°42'0 0.0
2014-Jul-20 15:28N 47°34' W 052°42'0 0.0
2014-Jul-20 14:28N 47°34' W 052°42'0 0.0
2014-Jul-20 13:28N 47°34' W 052°42'0 0.0
2014-Jul-20 12:28N 47°34' W 052°42'0 0.0
2014-Jul-20 11:28N 47°34' W 052°42'0 0.0
2014-Jul-20 10:28N 47°34' W 052°42'0 0.0
2014-Jul-20 09:28N 47°34' W 052°42'0 0.0
2014-Jul-20 08:28N 47°34' W 052°42'0 0.0
2014-Jul-20 07:28N 47°34' W 052°42'0 0.0
2014-Jul-20 06:28N 47°34' W 052°42'0 0.0
2014-Jul-20 05:28N 47°34' W 052°42'0 0.0
2014-Jul-20 04:28N 47°34' W 052°42'0 0.0
2014-Jul-20 03:28N 47°34' W 052°42'0 0.0
2014-Jul-20 02:28N 47°34' W 052°42'0 0.0
2014-Jul-20 01:25N 47°34' W 052°42'0 0.0
2014-Jul-20 00:28N 47°34' W 052°42'0 0.0
2014-Jul-19 23:28N 47°34' W 052°42'0 0.0
2014-Jul-19 22:28N 47°34' W 052°42'0 0.0
2014-Jul-19 21:31N 47°34' W 052°42'0 0.0
2014-Jul-19 20:28N 47°34' W 052°42'3 3.3
2014-Jul-19 19:28N 47°34' W 052°37'3 3.5
2014-Jul-19 18:33N 47°34' W 052°42'0 0.0
2014-Jul-19 17:33N 47°34' W 052°42'0 0.0
2014-Jul-19 16:33N 47°34' W 052°42'0 0.0
2014-Jul-19 15:33N 47°34' W 052°42'0 0.0
2014-Jul-19 14:30N 47°34' W 052°42'0 0.0
2014-Jul-19 13:30N 47°34' W 052°42'0 0.0
2014-Jul-19 12:33N 47°34' W 052°42'0 0.0
2014-Jul-19 11:33N 47°34' W 052°42'0 0.0
2014-Jul-19 10:33N 47°34' W 052°42'2 1.6
2014-Jul-19 09:16N 47°34' W 052°39'6 7.7
2014-Jul-19 08:28N 47°34' W 052°29'9 7.8
2014-Jul-19 07:18N 47°34' W 052°16'  
2014-Jul-16 11:29N 47°33' W 052°35'  
2014-Jul-12 16:08N 47°34' W 052°41'0 0.0
2014-Jul-12 15:32N 47°34' W 052°41'0 0.0
2014-Jul-12 14:32N 47°34' W 052°41'0 0.0
2014-Jul-12 13:32N 47°34' W 052°41'0 0.0
2014-Jul-12 12:27N 47°34' W 052°41'0 0.0
2014-Jul-12 11:32N 47°34' W 052°41'0 0.0
2014-Jul-12 10:33N 47°34' W 052°41'0 0.0
2014-Jul-12 09:33N 47°34' W 052°41'0 0.0
2014-Jul-12 08:33N 47°34' W 052°41'0 0.0
2014-Jul-12 07:33N 47°34' W 052°41'0 0.0
2014-Jul-12 06:33N 47°34' W 052°41'0 0.0
2014-Jul-12 05:33N 47°34' W 052°41'0 0.0
2014-Jul-12 04:33N 47°34' W 052°41'0 0.0
2014-Jul-12 03:33N 47°34' W 052°41'0 0.0
2014-Jul-12 02:27N 47°34' W 052°41'0 0.0
2014-Jul-12 01:33N 47°34' W 052°41'0 0.0
2014-Jul-12 00:33N 47°34' W 052°41'0 0.0
2014-Jul-11 23:33N 47°34' W 052°41'0 0.1
2014-Jul-11 22:33N 47°34' W 052°42'0 0.0
2014-Jul-11 21:33N 47°34' W 052°42'0 0.0
2014-Jul-11 20:33N 47°34' W 052°42'0 0.0
2014-Jul-11 19:33N 47°34' W 052°42'0 0.0
2014-Jul-11 18:33N 47°34' W 052°42'0 0.0
2014-Jul-11 17:33N 47°34' W 052°42'0 0.0
2014-Jul-11 16:33N 47°34' W 052°42'0 0.0
2014-Jul-11 15:21N 47°34' W 052°42'0 0.0
2014-Jul-11 14:33N 47°34' W 052°42'0 0.0
2014-Jul-11 13:33N 47°34' W 052°42'0 0.0
2014-Jul-11 12:27N 47°34' W 052°42'4 4.4
2014-Jul-11 11:32N 47°34' W 052°36'7 7.0
2014-Jul-11 10:33N 47°34' W 052°26'  
Track history (hours):
 
Tides and Currents Weather Stations Pressure Air Temp Water Temp Dewpoint Dewpoint Depression Visibility Wind Speed Wind Dir Waves Ship Positions

Southern Mariner

Last reported at 2014-Jul-21 00:28 UTC. Time now 2014-Jul-22 15:26 UTC.
Position N 47°39' W 052°21'.

Length 20 m.

Type: Fishing. MMSI: 316004790.

Date/timePositionNaut miles runAvg speedWind from/ knotsBaromVisibWave heightAir tempDewpointWater temp
2014-Jul-21 00:28N 47°39' W 052°21'7 7.1
2014-Jul-20 23:29N 47°37' W 052°30'8 6.8
2014-Jul-20 22:16N 47°34' W 052°42'0 0.0
2014-Jul-20 21:28N 47°34' W 052°42'0 0.0
2014-Jul-20 20:28N 47°34' W 052°42'0 0.0
2014-Jul-20 19:28N 47°34' W 052°42'0 0.0
2014-Jul-20 18:28N 47°34' W 052°42'0 0.0
2014-Jul-20 17:28N 47°34' W 052°42'0 0.0
2014-Jul-20 16:28N 47°34' W 052°42'0 0.0
2014-Jul-20 15:28N 47°34' W 052°42'0 0.0
2014-Jul-20 14:28N 47°34' W 052°42'0 0.0
2014-Jul-20 13:28N 47°34' W 052°42'0 0.0
2014-Jul-20 12:28N 47°34' W 052°42'0 0.0
2014-Jul-20 11:28N 47°34' W 052°42'0 0.0
2014-Jul-20 10:28N 47°34' W 052°42'0 0.0
2014-Jul-20 09:28N 47°34' W 052°42'0 0.0
2014-Jul-20 08:28N 47°34' W 052°42'0 0.0
2014-Jul-20 07:28N 47°34' W 052°42'0 0.0
2014-Jul-20 06:28N 47°34' W 052°42'0 0.0
2014-Jul-20 05:28N 47°34' W 052°42'0 0.0
2014-Jul-20 04:28N 47°34' W 052°42'0 0.0
2014-Jul-20 03:28N 47°34' W 052°42'0 0.0
2014-Jul-20 02:28N 47°34' W 052°42'0 0.0
2014-Jul-20 01:25N 47°34' W 052°42'0 0.0
2014-Jul-20 00:28N 47°34' W 052°42'0 0.0
2014-Jul-19 23:28N 47°34' W 052°42'0 0.0
2014-Jul-19 22:28N 47°34' W 052°42'0 0.0
2014-Jul-19 21:31N 47°34' W 052°42'0 0.0
2014-Jul-19 20:28N 47°34' W 052°42'3 3.3
2014-Jul-19 19:28N 47°34' W 052°37'3 3.5
2014-Jul-19 18:33N 47°34' W 052°42'0 0.0
2014-Jul-19 17:33N 47°34' W 052°42'0 0.0
2014-Jul-19 16:33N 47°34' W 052°42'0 0.0
2014-Jul-19 15:33N 47°34' W 052°42'0 0.0
2014-Jul-19 14:30N 47°34' W 052°42'0 0.0
2014-Jul-19 13:30N 47°34' W 052°42'0 0.0
2014-Jul-19 12:33N 47°34' W 052°42'0 0.0
2014-Jul-19 11:33N 47°34' W 052°42'0 0.0
2014-Jul-19 10:33N 47°34' W 052°42'2 1.6
2014-Jul-19 09:16N 47°34' W 052°39'6 7.7
2014-Jul-19 08:28N 47°34' W 052°29'9 7.8
2014-Jul-19 07:18N 47°34' W 052°16'  
2014-Jul-16 11:29N 47°33' W 052°35'  
2014-Jul-12 16:08N 47°34' W 052°41'0 0.0
2014-Jul-12 15:32N 47°34' W 052°41'0 0.0
2014-Jul-12 14:32N 47°34' W 052°41'0 0.0
2014-Jul-12 13:32N 47°34' W 052°41'0 0.0
2014-Jul-12 12:27N 47°34' W 052°41'0 0.0
2014-Jul-12 11:32N 47°34' W 052°41'0 0.0
2014-Jul-12 10:33N 47°34' W 052°41'0 0.0
2014-Jul-12 09:33N 47°34' W 052°41'0 0.0
2014-Jul-12 08:33N 47°34' W 052°41'0 0.0
2014-Jul-12 07:33N 47°34' W 052°41'0 0.0
2014-Jul-12 06:33N 47°34' W 052°41'0 0.0
2014-Jul-12 05:33N 47°34' W 052°41'0 0.0
2014-Jul-12 04:33N 47°34' W 052°41'0 0.0
2014-Jul-12 03:33N 47°34' W 052°41'0 0.0
2014-Jul-12 02:27N 47°34' W 052°41'0 0.0
2014-Jul-12 01:33N 47°34' W 052°41'0 0.0
2014-Jul-12 00:33N 47°34' W 052°41'0 0.0
2014-Jul-11 23:33N 47°34' W 052°41'0 0.1
2014-Jul-11 22:33N 47°34' W 052°42'0 0.0
2014-Jul-11 21:33N 47°34' W 052°42'0 0.0
2014-Jul-11 20:33N 47°34' W 052°42'0 0.0
2014-Jul-11 19:33N 47°34' W 052°42'0 0.0
2014-Jul-11 18:33N 47°34' W 052°42'0 0.0
2014-Jul-11 17:33N 47°34' W 052°42'0 0.0
2014-Jul-11 16:33N 47°34' W 052°42'0 0.0
2014-Jul-11 15:21N 47°34' W 052°42'0 0.0
2014-Jul-11 14:33N 47°34' W 052°42'0 0.0
2014-Jul-11 13:33N 47°34' W 052°42'0 0.0
2014-Jul-11 12:27N 47°34' W 052°42'4 4.4
2014-Jul-11 11:32N 47°34' W 052°36'7 7.0
2014-Jul-11 10:33N 47°34' W 052°26'  

Dump ship's entire track history